Regional Weather Roundup
Issued by NWS

Home | Current Version | Previous Version | Graphics & Text | Print | Product List | Glossary On
Versions: 1 2 3 4 5 6 7 8 9 10 11 12 13 14 15 16 17 18 19 20 21 22 23 24 25 26 27 28
000
ASUS45 KSLC 300610
RWRUT

UTAH REGIONAL WEATHER ROUNDUP
NATIONAL WEATHER SERVICE SALT LAKE CITY UT
1200 AM MDT TUE AUG 30 2016

UTZ001>011-023>025-300700-

NORTHERN UTAH

CITY           SKY/WX    TMP DP  RH WIND       PRES   REMARKS
BRIGHAM CITY     N/A     68  38  33 NW6       30.14R
HILL AFB       PTCLDY    72  31  21 E14       30.17S
LOGAN          CLEAR     64  39  39 S3        30.17S
OGDEN          PTCLDY    71  32  23 S10       30.14S
PROVO AIRPORT  NOT AVBL
SALT LAKE CITY PTCLDY    73  36  25 S13       30.13S
VERNAL         CLEAR     62  40  44 W5        30.26R
WENDOVER       MOCLDY    72  28  20 W6        30.14R
HEBER CITY     PTCLDY    55  37  50 CALM      30.26R
WEST JORDAN    CLEAR     69  31  24 SW6       30.17S

$$

UTZ012>022-026-027-300700-

SOUTHERN/CENTRAL UTAH

CITY           SKY/WX    TMP DP  RH WIND       PRES   REMARKS
BLANDING       CLEAR     64  43  47 E8        30.37R
BRYCE CANYON   CLEAR     49  42  77 W8        30.41S
CEDAR CITY     CLEAR     68  36  30 SE8       30.23S
DELTA          CLEAR     70  28  21 NE6       30.16F
MILFORD        NOT AVBL
MOAB/CYNLANDS  CLEAR     76  42  29 E16       30.16R
PRICE          PTCLDY    69  26  20 NE9       30.27R
ST GEORGE      PTCLDY    82  46  28 CALM      30.04R

$$

REGIONAL REPORTS     COLORADO/ARIZONA

CITY           SKY/WX    TMP DP  RH WIND       PRES   REMARKS
CRAIG, CO      CLEAR     58  39  49 E3        30.37R
GRAND JUNCTION CLEAR     68  44  42 SE12      30.26R
RIFLE          CLOUDY    59  45  59 SE10      30.32S
MONTROSE       CLEAR     59  46  62 S5        30.34R
CORTEZ         CLOUDY    55  49  80 CALM      30.31R
PAGE, AZ       CLEAR     74  40  29 S3        30.14R
GRAND CANYON   CLEAR     51  45  79 CALM      30.34R
KINGMAN        CLEAR     77  46  33 SE9       30.06R
FLAGSTAFF      CLEAR     50  45  83 CALM      30.35S

$$

REGIONAL REPORTS    NEVADA/IDAHO/WYOMING

CITY           SKY/WX    TMP DP  RH WIND       PRES   REMARKS
LAS VEGAS, NV  CLEAR     90  32  12 SW5       29.91S
ELY            PTCLDY    63  22  20 S12       30.27S
ELKO           CLEAR     67  26  21 E6        30.18R
POCATELLO, ID  MOCLDY    64  31  28 NE3       30.16R
BURLEY         CLOUDY    64  47  53 CALM      30.10S
EVANSTON, WY   CLEAR     64  21  19 S3        30.38R
ROCK SPRINGS   CLEAR     65  30  27 E9        30.37R

$$




USA.gov is the U.S. government's official web portal to all federal, state and local government web resources and services.